THORAD AGENA D DEB, 5220

Orbit data source: Space-Track

THORAD AGENA D DEB, 5220 is space debris in SSO originally from a launch on Wed, 08 Apr 1970 UTC launched from the Air Force Western Test Range (AFWTR). Debris objects in space refer to the collection of defunct objects orbiting the Earth. Examples of debris include non-operational satellites, rocket bodies, and fragments generated from explosions, collisions, or faulty payload assembly.

Loading next visibility...
Identifier
5220, 1970-025KG
Orbit
SSO
Country
Flag of USUS
Related business
Manufacturer
Unknown
Mission
Spacecraft
Bus & Motor
Unknown
Mass
Unknown
Launch date (UTC)
1970-04-08 (56 years ago)
Launch vehicle
Unknown
Launch site
Air Force Western Test Range (AFWTR)
Object type
Payload
Rocket body
Debris
Shape & HBR
Unknown shape, 0.1 m
Radar Cross Section
Medium (>0.1 m² and <1 m²)

Expand to show TLE details & history
Last TLE update: 1 day ago

TLE from 1 day ago
0 THORAD AGENA D DEB
1  5220U 70025KG  26255.94292778  .00000113  00000-0  39987-3 0  9995
2  5220  99.8309 128.7789 0380740 169.3227 205.6346 12.92638950642837
Epoch: 2026-09-12T22:37Z
TLE epoch observation values (Epoch: 2026-09-12T22:37:48.960Z)
Latitude
12.91705°
Longitude
155.11355°
Altitude
1,558.312 km
Speed
6.966 km/s
True Right ascension
08h 26m 02s
True Declination
12° 50' 60"
Sunlit
Object was in daylight at epoch
Visualization orbit readout
Latitude
Unknown
Longitude
Unknown
Altitude
Unknown
Speed
Unknown
Apparent Right ascension
Unknown
Apparent Declination
Unknown
Sunlit
N/A
Visualization observer readout
Local Sidereal Time
02:45:37
Azimuth
Unknown
Elevation
Unknown
Doppler factor
Unknown
Orbital elements
Apogee altitude
1,580.345 km
Perigee altitude
996.55 km
Semi-major axis
7,666.585 km
Eccentricity
0.03807
Inclination
99.8309°
RAAN
128.7789°
Arg. of periapsis
169.3227°
True anomaly
203.82513°
Mean anomaly
205.6346°
Eccentric anomaly
204.72226°
Mean motion
3.23326 °/min
Orbital period
111.34 mins
BSTAR
0.00039987
Loading maneuver chart data...
Computing Atmospheric mass density...
Loading historical data...
Loading historical data...
Loading historical data...
Loading historical data...
Loading historical data...
Loading historical data...
Loading historical data...

Documentation

Showing up to 5 results
|